Hourly Weather Otmice

Today, 30 July, Friday

Time Temperature Precipitation Wind Pressure Humidity
00:00 +19°C° 0 mm 2 mps 742 mmHg 68%
01:00 +18°C° 0 mm 2 mps 742 mmHg 73%
02:00 +18°C° 0 mm 2 mps 741 mmHg 75%
03:00 +18°C° 0 mm 1 mps 741 mmHg 78%
04:00 +18°C° 0 mm 1 mps 741 mmHg 80%
05:00 +19°C° 0 mm 1 mps 741 mmHg 75%
06:00 +21°C° 0 mm 1 mps 742 mmHg 70%
07:00 +22°C° 0 mm 1 mps 742 mmHg 64%
08:00 +24°C° 0 mm 1 mps 742 mmHg 58%
09:00 +26°C° 0 mm 2 mps 741 mmHg 52%
10:00 +27°C° 0 mm 3 mps 741 mmHg 46%
11:00 +28°C° 0 mm 3 mps 741 mmHg 42%
12:00 +29°C° 0 mm 4 mps 741 mmHg 39%
13:00 +32°C° 0 mm 5 mps 740 mmHg 36%
14:00 +32°C° 0 mm 5 mps 740 mmHg 35%
15:00 +32°C° 0 mm 5 mps 740 mmHg 35%
16:00 +32°C° 0 mm 5 mps 739 mmHg 35%
17:00 +29°C° 0 mm 4 mps 739 mmHg 41%
18:00 +27°C° 0 mm 3 mps 739 mmHg 48%
19:00 +25°C° 0 mm 2 mps 739 mmHg 54%
20:00 +24°C° 0 mm 1 mps 739 mmHg 56%
21:00 +23°C° 0 mm 1 mps 739 mmHg 58%
22:00 +20°C° 0 mm 0 mps 739 mmHg 61%
23:00 +21°C° 0.1 mm 1 mps 739 mmHg 64%

Tomorrow, 31 July, Saturday

Time Temperature Precipitation Wind Pressure Humidity
00:00 +21°C° 0.1 mm 1 mps 739 mmHg 67%
01:00 +20°C° 0.1 mm 1 mps 739 mmHg 69%
02:00 +20°C° 0 mm 1 mps 739 mmHg 72%
03:00 +20°C° 0 mm 1 mps 739 mmHg 74%
04:00 +20°C° 0 mm 1 mps 738 mmHg 76%
05:00 +20°C° 0.1 mm 2 mps 739 mmHg 75%
06:00 +21°C° 0.1 mm 2 mps 739 mmHg 74%
07:00 +23°C° 0.1 mm 2 mps 739 mmHg 73%
08:00 +23°C° 0.3 mm 2 mps 739 mmHg 74%
09:00 +23°C° 0.3 mm 2 mps 739 mmHg 75%
10:00 +22°C° 0.3 mm 3 mps 739 mmHg 77%
11:00 +22°C° 0.3 mm 3 mps 739 mmHg 74%
12:00 +24°C° 0.3 mm 3 mps 739 mmHg 71%
13:00 +25°C° 0.3 mm 3 mps 740 mmHg 68%
14:00 +26°C° 0 mm 4 mps 739 mmHg 60%
15:00 +27°C° 0 mm 4 mps 739 mmHg 52%
16:00 +28°C° 0 mm 4 mps 739 mmHg 44%
17:00 +27°C° 0 mm 4 mps 739 mmHg 47%
18:00 +25°C° 0 mm 3 mps 739 mmHg 51%
19:00 +24°C° 0 mm 3 mps 739 mmHg 54%
20:00 +23°C° 0 mm 2 mps 739 mmHg 57%
21:00 +21°C° 0 mm 2 mps 740 mmHg 59%
22:00 +20°C° 0 mm 2 mps 740 mmHg 62%
23:00 +19°C° 0 mm 2 mps 740 mmHg 65%

Day after tomorrow, 1 August, Sunday

Time Temperature Precipitation Wind Pressure Humidity
00:00 +18°C° 0 mm 2 mps 740 mmHg 67%
01:00 +19°C° 0 mm 1 mps 740 mmHg 69%
02:00 +18°C° 0 mm 1 mps 740 mmHg 71%
03:00 +18°C° 0 mm 1 mps 739 mmHg 72%
04:00 +15°C° 0 mm 0 mps 739 mmHg 73%
05:00 +18°C° 0.2 mm 1 mps 739 mmHg 73%
06:00 +19°C° 0.2 mm 1 mps 739 mmHg 74%
07:00 +18°C° 0.2 mm 2 mps 739 mmHg 75%
08:00 +17°C° 2 mm 2 mps 739 mmHg 81%
09:00 +17°C° 2 mm 3 mps 740 mmHg 88%
10:00 +16°C° 2 mm 3 mps 740 mmHg 94%
11:00 +16°C° 1.1 mm 3 mps 740 mmHg 94%
12:00 +16°C° 1.1 mm 3 mps 740 mmHg 94%
13:00 +16°C° 1.1 mm 3 mps 740 mmHg 94%
14:00 +17°C° 0 mm 2 mps 740 mmHg 87%
15:00 +18°C° 0 mm 2 mps 740 mmHg 80%
16:00 +19°C° 0 mm 2 mps 739 mmHg 73%
17:00 +19°C° 0 mm 2 mps 739 mmHg 75%
18:00 +19°C° 0 mm 1 mps 740 mmHg 77%
19:00 +19°C° 0 mm 1 mps 740 mmHg 79%
20:00 +18°C° 0 mm 1 mps 740 mmHg 81%
21:00 +16°C° 0 mm 1 mps 740 mmHg 84%
22:00 +16°C° 0 mm 1 mps 739 mmHg 86%
23:00 +16°C° 0.3 mm 1 mps 740 mmHg 88%

2 August, Monday

Time Temperature Precipitation Wind Pressure Humidity
00:00 +16°C° 0.3 mm 2 mps 740 mmHg 90%
01:00 +16°C° 0.3 mm 2 mps 740 mmHg 92%
02:00 +16°C° 0.4 mm 2 mps 740 mmHg 92%
03:00 +16°C° 0.4 mm 2 mps 740 mmHg 93%
04:00 +16°C° 0.4 mm 2 mps 740 mmHg 93%
05:00 +16°C° 0 mm 2 mps 740 mmHg 91%
06:00 +17°C° 0 mm 2 mps 740 mmHg 88%
07:00 +17°C° 0 mm 2 mps 741 mmHg 86%
08:00 +19°C° 0.4 mm 3 mps 741 mmHg 78%
09:00 +20°C° 0.4 mm 3 mps 741 mmHg 71%
10:00 +21°C° 0.4 mm 3 mps 741 mmHg 63%
11:00 +22°C° 0.3 mm 3 mps 741 mmHg 60%
12:00 +23°C° 0.3 mm 4 mps 741 mmHg 57%
13:00 +23°C° 0.3 mm 4 mps 741 mmHg 54%
14:00 +22°C° 0.2 mm 4 mps 742 mmHg 58%
15:00 +22°C° 0.2 mm 3 mps 742 mmHg 62%
16:00 +21°C° 0.2 mm 3 mps 742 mmHg 66%
17:00 +20°C° 0.3 mm 3 mps 742 mmHg 71%
18:00 +19°C° 0.3 mm 3 mps 742 mmHg 75%
19:00 +18°C° 0.3 mm 3 mps 742 mmHg 80%
20:00 +18°C° 0 mm 2 mps 743 mmHg 82%
21:00 +17°C° 0 mm 2 mps 743 mmHg 83%
22:00 +16°C° 0 mm 2 mps 744 mmHg 85%
23:00 +16°C° 0 mm 2 mps 744 mmHg 85%

3 August, Tuesday

Time Temperature Precipitation Wind Pressure Humidity
00:00 +16°C° 0 mm 1 mps 744 mmHg 86%
01:00 +15°C° 0 mm 1 mps 744 mmHg 86%
02:00 +15°C° 0 mm 1 mps 744 mmHg 87%
03:00 +14°C° 0 mm 1 mps 744 mmHg 88%
04:00 +14°C° 0 mm 1 mps 744 mmHg 90%
05:00 +15°C° 0 mm 1 mps 744 mmHg 85%
06:00 +17°C° 0 mm 2 mps 744 mmHg 80%
07:00 +18°C° 0 mm 2 mps 745 mmHg 75%
08:00 +20°C° 0 mm 2 mps 745 mmHg 66%
09:00 +23°C° 0 mm 2 mps 744 mmHg 58%
10:00 +24°C° 0 mm 2 mps 744 mmHg 49%
11:00 +25°C° 0 mm 2 mps 744 mmHg 47%
12:00 +26°C° 0 mm 2 mps 744 mmHg 44%
13:00 +26°C° 0 mm 2 mps 743 mmHg 42%
14:00 +26°C° 0 mm 2 mps 743 mmHg 43%
15:00 +26°C° 0 mm 2 mps 743 mmHg 44%
16:00 +26°C° 0 mm 2 mps 743 mmHg 45%
17:00 +25°C° 0 mm 1 mps 743 mmHg 50%
18:00 +24°C° 0 mm 1 mps 742 mmHg 55%
19:00 +20°C° 0 mm 0 mps 742 mmHg 60%
20:00 +21°C° 0.9 mm 1 mps 742 mmHg 70%
21:00 +19°C° 0.9 mm 1 mps 743 mmHg 80%
22:00 +17°C° 0.9 mm 2 mps 743 mmHg 89%
23:00 +16°C° 0.2 mm 2 mps 743 mmHg 90%

4 August, Wednesday

Time Temperature Precipitation Wind Pressure Humidity
00:00 +16°C° 0.2 mm 2 mps 743 mmHg 90%
01:00 +16°C° 0.2 mm 2 mps 743 mmHg 91%
02:00 +15°C° 0 mm 2 mps 743 mmHg 91%
03:00 +15°C° 0 mm 2 mps 743 mmHg 92%
04:00 +14°C° 0 mm 2 mps 743 mmHg 92%
05:00 +15°C° 0 mm 1 mps 743 mmHg 87%
06:00 +16°C° 0 mm 1 mps 743 mmHg 82%
07:00 +18°C° 0 mm 1 mps 744 mmHg 78%
08:00 +20°C° 0 mm 1 mps 744 mmHg 71%
09:00 +21°C° 0 mm 1 mps 744 mmHg 64%
10:00 +21°C° 0 mm 2 mps 744 mmHg 56%
11:00 +23°C° 0 mm 2 mps 743 mmHg 53%
12:00 +24°C° 0 mm 2 mps 743 mmHg 49%
13:00 +25°C° 0 mm 3 mps 743 mmHg 46%
14:00 +25°C° 0 mm 3 mps 743 mmHg 47%
15:00 +25°C° 0 mm 3 mps 743 mmHg 47%
16:00 +24°C° 0 mm 3 mps 742 mmHg 48%
17:00 +22°C° 0 mm 3 mps 743 mmHg 54%
18:00 +21°C° 0 mm 3 mps 743 mmHg 60%
19:00 +20°C° 0 mm 3 mps 743 mmHg 65%
20:00 +19°C° 0 mm 3 mps 743 mmHg 68%
21:00 +18°C° 0 mm 3 mps 743 mmHg 71%
22:00 +18°C° 0 mm 3 mps 743 mmHg 74%
23:00 +17°C° 0 mm 3 mps 743 mmHg 75%
Show more